ExoCube 2 (47319 NORAD) Tracking and Keplerian Element Data

This shows tracking and keplerian element data for the satellite.

Feedback or suggestion? Click here.




ElementValue
Catalog47319
NameExoCube 2
Epoch Orbit1327
Epoch Day105.62302007
Epoch Year2021
RAAN166.5347
Inclination60.686
Eccentricity0.0028585
Argument of Perigee13.819
Mean Anonmoly346.3672
Mean Motion15.21085875
Decay Rate9.7E-06
L11 47319U 21002L 21105.62302007 .00000970 00000-0 55101-4 0 9990
L22 47319 60.6860 166.5347 0028585 13.8190 346.3672 15.21085875 13270

Live tracking and technical data element details for ExoCube 2 (NORAD 47319). ExoCube 2 can be tracked NOW for your location showing map with azimuth and elevation plus other details from your city location.

Track the satellite on the map from your city or location and see movement details for azimuth, elevation, latitude, longitude, range, height, and movement on the map or in text.







IsCatalogInMostPopularTable: catalog: 47319, numindb: 24
Update: records affected: 1



GetName: 47319 ExoCube 2

Hit Count: updated at: Fri, 16 Apr 2021 11:07:32 GMT